Showing default

FLOCK 4BE 19, 60563

Orbit data source: Space-Track

FLOCK 4BE 19, 60563 is a payload satellite owned by Planet (US) in SSO that was launched on Fri, 16 Aug 2024 UTC via an FALCON 9 launch vehicle from the Air Force Western Test Range (AFWTR). Payload-class satellites include a variety of spacecraft equipped with specific instruments for various scientific and technological missions. These include communications satellites like Starlink; space stations such as the ISS; scientific satellites like the Hubble; Earth observation satellites from companies like Planet Labs, Umbra, and HawkEye 360; GPS; miniature CubeSats for education and research; and military/defense satellites.

Loading next visibility...
Identifier
60563, 2024-149CZ
Orbit
SSO
Country
Flag of USUS
Related business
Manufacturer
Planet
Mission
Operational Commercial Imaging
Bus & Motor
CUBESAT 3U, Unknown motor
Mass
5.7 kg wet, 5.7 kg dry
Launch date (UTC)
2024-08-16 (1 year ago)
Launch vehicle
FALCON 9
Launch site
Air Force Western Test Range (AFWTR)
Object type
Payload
Rocket body
Debris
Shape & HBR
Box + 2 Pan, 1.0 m
Radar Cross Section
0.072 m², Medium (>0.1 m² and < 1m²)

Expand to show TLE details & history
Last TLE update: 9 hours ago

TLE from 9 hours ago
0 FLOCK 4BE 19
1 60563U 24149CZ  25310.20786180  .00024275  00000-0  72639-3 0  9993
2 60563  97.3961  28.7899 0004879  28.3296 331.8212 15.34530007 68112
Epoch: 2025-11-06T04:59Z
TLE epoch observation values (Epoch: 2025-11-06T04:59:19.259Z)
Latitude
0.00003°
Longitude
-91.70983°
Altitude
462.485 km
Speed
7.637 km/s
True Right ascension
01h 55m 09s
True Declination
0° 00' 00"
Sunlit
Object was in full shadow at epoch
Visualization orbit readout
Latitude
Unknown
Longitude
Unknown
Altitude
Unknown
Speed
Unknown
Apparent Right ascension
Unknown
Apparent Declination
Unknown
Sunlit
N/A
Visualization observer readout
Local Sidereal Time
09:55:29
Azimuth
Unknown
Elevation
Unknown
Doppler factor
Unknown
Orbital elements
Apogee altitude
462.599 km
Perigee altitude
455.927 km
Semi-major axis
6,837.4 km
Eccentricity
0.00049
Inclination
97.3961°
RAAN
28.7899°
Arg. of periapsis
28.3296°
True anomaly
331.79478°
Mean anomaly
331.8212°
Eccentric anomaly
331.80799°
Mean motion
3.8389 °/min
Orbital period
93.78 mins
BSTAR
0.00072639
Loading maneuver chart data...
Computing Atmospheric mass density...
Loading historical data...
Loading historical data...
Loading historical data...
Loading historical data...
Loading historical data...
Loading historical data...
Loading historical data...

Documentation

Showing up to 5 results
|